Regional Weather Roundup
Issued by NWS Columbia, SC

Home | Current Version | Previous Version | Text Only | Print | Product List | Glossary On
Versions: 1 2 3 4 5 6 7 8 9 10 11 12 13 14 15 16 17 18 19 20 21 22 23 24 25 26 27 28 29 30 31 32 33 34 35 36 37 38 39 40 41 42 43 44 45 46 47 48 49 50
000
ASUS42 KCAE 202210
RWRCAE
REGIONAL WEATHER ROUNDUP
NATIONAL WEATHER SERVICE COLUMBIA SC
600 PM EDT WED SEP 20 2017

NOTE: "FAIR" INDICATES FEW OR NO CLOUDS BELOW 12,000 FEET WITH NO
SIGNIFICANT WEATHER AND/OR OBSTRUCTIONS TO VISIBILITY.

NOT ALL STATIONS ARE QUALITY CONTROLLED BY THE NATIONAL
WEATHER SERVICE. USE DATA WITH CAUTION...ESPECIALLY
DEWPOINT OBSERVATIONS.

SCZ001>056-GAZ040-063>065-077-202300-
...UPSTATE SOUTH CAROLINA...

CITY           SKY/WX    TMP DP  RH WIND       PRES   REMARKS
ANDERSON       SUNNY     87  64  46 W3        29.99R
LIBERTY        CLEAR     88  66  49 W3        30.00R
SPARTANBURG    SUNNY     86  63  45 CALM      29.98S
CLEMSON        SUNNY     90  65  43 VRB5      30.01R
GREENVILLE     MOSUNNY   88  63  43 VRB3      30.01R
GREENWOOD      SUNNY     88  65  46 W3        29.99S
GREER          SUNNY     84  66  54 CALM      29.99S
ROCK HILL        N/A    N/A N/A N/A MISG      29.98S
CHESTER        PTCLDY    86  63  45 W5        29.98S
LAURENS        CLEAR     88  66  48 CALM      29.98S


...CENTRAL SOUTH CAROLINA...

CITY           SKY/WX    TMP DP  RH WIND       PRES   REMARKS
COLUMBIA APT   MOSUNNY   90  64  42 NE6       29.95S
COLUMBIA OWENS SUNNY     90  62  39 VRB3      29.96S
MCENTIRE ANGB  MOSUNNY   86  67  51 NE6       29.96S
ORANGEBURG     SUNNY     90  63  40 NW3       29.95F
SUMTER SHAW    MOSUNNY   84  68  58 W8        29.94S
NEWBERRY       PTCLDY    88  68  51 W3        29.99F
AIKEN          FAIR      88  64  45 NW3       30.00S
BARNWELL       FAIR      88  70  55 CALM      29.96S
MANNING        FAIR      88  64  45 CALM      29.96S
CAMDEN         FAIR      86  68  54 CALM      29.97S
LANCASTER      CLEAR     84  68  58 CALM      29.97S
WINNSBORO      CLEAR     84  68  58 CALM      29.97F


...EASTERN AND COASTAL SOUTH CAROLINA...

CITY           SKY/WX    TMP DP  RH WIND       PRES   REMARKS
MYRTLE BEACH   SUNNY     83  74  74 S14       29.97S
N MYRTLE BCH   SUNNY     82  75  79 SW12      29.95F
CONWAY         FAIR      86  70  58 SW3       29.95F
MARION         FAIR      84  68  58 W3        29.95S HAZE
HARTSVILLE     FAIR      84  70  61 S5        29.96S
FLORENCE       MOSUNNY   84  71  65 N8        29.96S
DARLINGTON     MOSUNNY   80  70  71 S5        29.96S
CHARLESTON APT MOSUNNY   84  72  67 S9        29.96S
MOUNT PLEASANT FAIR      84  72  65 S6        29.97S
WALTERBORO     CLEAR     84  72  65 SE3       29.96F
BEAUFORT       MOSUNNY   86  75  69 SE7       29.96S HX  95


...EASTERN GEORGIA...

CITY           SKY/WX    TMP DP  RH WIND       PRES   REMARKS
AUGUSTA BUSH F SUNNY     91  69  48 SE5       29.95S HX  96
AUGUSTA DANIEL SUNNY     92  65  40 N7        29.97S
THOMSON        SUNNY     88  65  46 E3        30.01S
WASHINGTON     FAIR     N/A N/A N/A CALM      29.97F
CLAXTON        FAIR      90  71  54 CALM      29.95S HX  96
SYLVANIA       PTCLDY    89  75  65 CALM      29.96F HX  99
STATESBORO     MOSUNNY   90  66  46 CALM      29.95S
SAVANNAH       PTSUNNY   85  71  63 S15       29.97R


...SOUTHERN NORTH CAROLINA...

CITY           SKY/WX    TMP DP  RH WIND       PRES   REMARKS
CHARLOTTE      MOSUNNY   87  66  49 CALM      29.98S
MONROE         MOSUNNY   85  68  56 NW3       29.96S
WADESBORO      PTCLDY    90  63  40 W6        29.95R HAZE
RUTHERFORDTON  SUNNY     86  64  47 CALM      30.00S
ASHEVILLE      CLOUDY    81  64  56 W9        30.07S

$$



USA.gov is the U.S. government's official web portal to all federal, state and local government web resources and services.